This demonstration page uses our WeatherBlox Daily Observations layout. Learn more.

38.89511, -77.03637

Hourly Observations for January 18, 2015

Temp ( °F °C ) Dew Point ( °F °C ) Humidity (%) Winds ( mph kmh ) Pressure ( in mb ) Visibility ( mi km ) Precip ( " mm )
12:52 am 00:52 Partly Cloudy 36 2 27 -3 70 70 S 14 22 30.18 1022 10 16.09344 0 0
1:52 am 01:52 Mostly Cloudy 36 2 28 -2 75 75 S 9 15 30.18 1022 10 16.09344 0 0
2:52 am 02:52 Mostly Cloudy 36 2 28 -2 75 75 S 13 20 30.12 1020 10 16.09344 0 0
3:52 am 03:52 Cloudy 36 2 28 -2 75 75 S 8 13 30.09 1019 10 16.09344 0 0
4:44 am 04:44 Cloudy 36 2 28 -2 75 75 SSW 3 6 30.06 1018 10 16.09344 0 0
4:52 am 04:52 Cloudy 36 2 28 -2 75 75 SW 5 7 30.09 1019 10 16.09344 0 0
5:52 am 05:52 Cloudy 37 3 28 -2 70 70 Calm 30.06 1018 10 16.09344 0 0
6:09 am 06:09 Cloudy with Light Rain 37 3 28 -2 70 70 SE 3 6 30.03 1017 10 16.09344 0.001 0.001
6:52 am 06:52 Cloudy with Light Rain 37 3 30 -1 75 75 S 5 7 30.03 1017 9 14.484096 0.001 0.001
7:49 am 07:49 Cloudy with Light Rain 37 3 30 -1 75 75 Calm 30 1016 4 6.437376 0.03 0.762
7:52 am 07:52 Cloudy with Light Rain 37 3 30 -1 75 75 Calm 30 1016 4 6.437376 0.03 0.762
8:39 am 08:39 Cloudy with Rain 36 2 32 0 87 87 Calm 30 1016 2.5 4.02336 0.12 3.048
8:52 am 08:52 Cloudy with Rain 36 2 32 0 87 87 Calm 30 1016 2 3.218688 0.17 4.318
9:13 am 09:13 Cloudy with Rain 37 3 32 0 81 81 ESE 6 9 29.97 1015 1.75 2.816352 0.08 2.032
9:52 am 09:52 Cloudy with Light Rain 37 3 34 1 87 87 Calm 29.94 1014 1.75 2.816352 0.17 4.318
10:38 am 10:38 Cloudy with Light Rain 39 4 36 2 87 87 Calm 29.91 1013 2.5 4.02336 0 0
10:52 am 10:52 Cloudy with Light Rain 39 4 36 2 87 87 W 5 7 29.91 1013 2 3.218688 0.16 4.064
11:48 am 11:48 Cloudy with Light Rain 41 5 37 3 87 87 Calm 29.88 1012 4 6.437376 0 0
11:52 am 11:52 Cloudy with Mist and Fog 41 5 37 3 87 87 Calm 29.88 1012 5 8.04672 0.05 1.27
12:13 pm 12:13 Cloudy with Light Rain 39 4 36 2 87 87 E 3 6 29.83 1010 2 3.218688 0.02 0.508
12:52 pm 12:52 Cloudy with Mist and Fog 43 6 37 3 81 81 W 8 13 29.77 1008 2.5 4.02336 0.02 0.508
12:59 pm 12:59 Cloudy with Mist and Fog 43 6 37 3 81 81 W 8 13 29.8 1009 4 6.437376 0 0
1:42 pm 13:42 Cloudy with Mist and Fog 43 6 37 3 81 81 Calm 29.77 1008 2 3.218688 0 0
1:52 pm 13:52 Cloudy with Mist and Fog 43 6 37 3 81 81 Calm 29.74 1007 1.75 2.816352 0 0
2:20 pm 14:20 Cloudy with Mist and Fog 43 6 37 3 81 81 Calm 29.74 1007 2.5 4.02336 0 0
2:52 pm 14:52 Cloudy with Mist and Fog 43 6 39 4 87 87 Calm 29.74 1007 2 3.218688 0 0
2:55 pm 14:55 Cloudy with Mist and Fog 43 6 39 4 87 87 Calm 29.74 1007 1.5 2.414016 0 0
3:07 pm 15:07 Cloudy with Mist and Fog 43 6 37 3 81 81 Calm 29.77 1008 1.25 2.01168 0 0
3:28 pm 15:28 Cloudy with Mist and Fog 45 7 39 4 81 81 Calm 29.77 1008 2 3.218688 0 0
3:43 pm 15:43 Cloudy with Mist and Fog 43 6 39 4 87 87 Calm 29.77 1008 1.5 2.414016 0 0
3:46 pm 15:46 Cloudy with Haze 43 6 37 3 81 81 N 6 9 29.8 1009 2 3.218688 0 0
3:52 pm 15:52 Cloudy with Haze 45 7 39 4 81 81 NNW 7 11 29.8 1009 3 4.828032 0 0
4:06 pm 16:06 Cloudy with Haze 45 7 39 4 81 81 NNW 5 7 29.8 1009 4 6.437376 0 0
4:52 pm 16:52 Mostly Cloudy with Haze 43 6 37 3 81 81 NNE 3 6 29.8 1009 6 9.656064 0 0
5:52 pm 17:52 Mostly Cloudy 41 5 36 2 81 81 Calm 29.83 1010 9 14.484096 0 0
6:52 pm 18:52 Partly Cloudy 43 6 34 1 71 71 WNW 5 7 29.85 1011 10 16.09344 0 0
7:52 pm 19:52 Mostly Clear 45 7 30 -1 57 57 NW 9 15 29.85 1011 10 16.09344 0 0
8:52 pm 20:52 Mostly Clear 43 6 30 -1 61 61 WNW 6 9 29.85 1011 10 16.09344 0 0
9:52 pm 21:52 Mostly Cloudy 45 7 30 -1 57 57 WNW 8 13 29.88 1012 10 16.09344 0 0
10:52 pm 22:52 Mostly Cloudy 43 6 30 -1 61 61 NW 5 7 29.88 1012 10 16.09344 0 0
11:52 pm 23:52 Mostly Clear 43 6 30 -1 61 61 NW 7 11 29.88 1012 10 16.09344 0 0

Powered by AerisWeather